This is the latest recevied weather packets stored in our database for station/object ED1ZAI-13. If no packets are shown the sender has not sent any weather packets the latest 1 day(s).
| Time | Temp. | Humidity | Pressure | Rain* | Wind** | Luminosity | Snow |
|---|---|---|---|---|---|---|---|
| 1777987148 | 13.89° C | 44% | 1009.7 hPa | 0 mm | 1.79 m/s, 253° | - | - |
| 1777986548 | 12.78° C | 41% | 1009.8 hPa | 0 mm | 1.34 m/s, 260° | - | - |
| 1777985948 | 12.78° C | 41% | 1009.9 hPa | 0 mm | 1.79 m/s, 268° | - | - |
| 1777985348 | 12.22° C | 46% | 1010 hPa | 0 mm | 2.24 m/s, 266° | - | - |
| 1777984747 | 12.78° C | 45% | 1010 hPa | 0 mm | 1.79 m/s, 293° | - | - |
| 1777984147 | 13.33° C | 41% | 1010 hPa | 0 mm | 1.79 m/s, 280° | - | - |
| 1777983547 | 12.22° C | 44% | 1010.1 hPa | 0 mm | 1.79 m/s, 293° | - | - |
| 1777982949 | 12.22° C | 45% | 1010.1 hPa | 0 mm | 1.79 m/s, 226° | - | - |
| 1777982347 | 12.78° C | 51% | 1010.1 hPa | 0 mm | 1.79 m/s, 239° | - | - |
| 1777981747 | 12.78° C | 47% | 1010.3 hPa | 0 mm | 1.79 m/s, 260° | - | - |
| 1777981146 | 11.11° C | 44% | 1010.5 hPa | 0 mm | 2.24 m/s, 298° | - | - |
| 1777980546 | 11.67° C | 50% | 1010.6 hPa | 0 mm | 1.79 m/s, 305° | - | - |
| 1777979946 | 11.67° C | 50% | 1010.8 hPa | 0 mm | 1.79 m/s, 89° | - | - |
| 1777979347 | 10.56° C | 48% | 1010.8 hPa | 0 mm | 2.24 m/s, 215° | - | - |
| 1777978747 | 11.11° C | 51% | 1010.8 hPa | 0 mm | 2.24 m/s, 246° | - | - |
| 1777978147 | 11.11° C | 49% | 1010.9 hPa | 0 mm | 1.79 m/s, 222° | - | - |
| 1777977547 | 9.44° C | 53% | 1011 hPa | 0 mm | 2.24 m/s, 301° | - | - |
| 1777976947 | 11.11° C | 56% | 1010.9 hPa | 0 mm | 1.79 m/s, 255° | - | - |
| 1777976347 | 10° C | 55% | 1011 hPa | 0 mm | 2.24 m/s, 261° | - | - |
| 1777975747 | 9.44° C | 57% | 1011.1 hPa | 0 mm | 2.24 m/s, 262° | - | - |
| 1777975146 | 11.11° C | 57% | 1011.1 hPa | 0 mm | 1.79 m/s, 258° | - | - |
| 1777974546 | 9.44° C | 58% | 1011 hPa | 0 mm | 1.34 m/s, 274° | - | - |
| 1777973804 | 9.44° C | 59% | 1011.2 hPa | 0 mm | 1.34 m/s, 263° | - | - |
| 1777973203 | 8.89° C | 65% | 1011.2 hPa | 0 mm | 1.79 m/s, 226° | - | - |
| 1777972603 | 9.44° C | 64% | 1011.2 hPa | 0 mm | 1.34 m/s, 237° | - | - |
* Rain latest hour (hover to see other rain measurements)
** Current wind speed in m/s (hover to see current wind gust speed)